{"data":{"norad_id":44543,"intl_designator":"2019-061B","name":"BEIDOU-3 M23 (C45)","alt_names":[],"object_type":"PAYLOAD","status":"ACTIVE","operator":null,"country":"PRC","launch_date":"2019-09-22","launch_site_code":"XICLF","launch_vehicle":null,"mission":null,"orbit_class":"UNKNOWN","rcs_meters":null,"size_class":null,"mass_kg":null,"dimensions":null,"purposes":["earth_obs","nav"],"wikipedia_slug":null,"has_3d_model":false,"image_url":null,"decayed_at":null,"tle_current":{"epoch":"2026-09-20T02:38:54.778272Z","epoch_age_seconds":51797,"freshness":"FRESH","line1":"1 44543U 19061B   26263.11035623 -.00000028  00000+0  00000+0 0  9996","line2":"2 44543  54.3919 179.4968 0006091   4.2991 150.6914  1.86227918 47560","mean_motion":1.86227918,"eccentricity":0.0006091,"inclination_deg":54.3919,"raan_deg":179.4968,"arg_perigee_deg":4.2991,"mean_anomaly_deg":150.6914,"bstar":0,"rev_number":4756,"period_min":773.24603929686,"perigee_km":21511.361607129,"apogee_km":21545.357301109,"semimajor_km":27906.496454119,"source":"CELESTRAK","updated_at":"2026-09-20T09:00:46.712782Z"}}}